Location: Observatory
(49.4490°N, 2.6360°W)
Time: 17:33:38
(UTC+01:00)

DIWATA 2B (PO-101) - Visible Passes

Search period start: 28 May 2024 00:00
Search period end: 07 June 2024 00:00
Orbit: 574 x 589 km, 98.1° (Epoch: 28 May)

Date Brightness Start Highest point End Pass type
(mag) Time Alt. Az. Time Alt. Az. Time Alt. Az.
28 May ? 04:19:22 10° SSE 04:23:26 71° ENE 04:27:32 10° N visible
29 May ? 02:53:10 10° ENE 02:54:15 11° NE 02:55:21 10° NE visible
29 May ? 04:24:46 10° SSE 04:28:52 80° ENE 04:32:59 10° NNW visible
30 May ? 02:57:59 10° E 02:59:37 12° ENE 03:01:14 10° NNE visible
31 May ? 03:02:57 10° E 03:04:58 13° ENE 03:06:59 10° NNE visible
01 Jun ? 03:08:01 10° E 03:10:19 15° ENE 03:12:38 10° NNE visible
02 Jun ? 03:13:06 10° E 03:15:40 16° ENE 03:18:15 10° NNE visible
03 Jun ? 03:18:14 10° ESE 03:21:02 18° ENE 03:23:50 10° NNE visible
04 Jun ? 03:23:24 10° ESE 03:26:23 20° ENE 03:29:23 10° NNE visible
05 Jun ? 03:28:34 10° ESE 03:31:44 22° ENE 03:34:55 10° NNE visible
06 Jun ? 03:33:47 10° ESE 03:37:05 24° ENE 03:40:25 10° N visible
